Regional Weather Roundup
Issued by NWS

Home | Current Version | Previous Version | Graphics & Text | Print | Product List | Glossary On
Versions: 1 2 3 4 5 6 7 8 9 10 11 12 13 14 15 16 17 18 19 20 21 22 23 24 25 26 27 28 29 30 31 32 33 34 35 36 37 38 39 40 41 42 43 44 45 46 47 48 49 50
000
ASUS43 KMKX 050711
RWRWI

WISCONSIN REGIONAL WEATHER ROUNDUP
NATIONAL WEATHER SERVICE MILWAUKEE/SULLIVAN WI
200 AM CDT SUN JUL 05 2015

NOTE: "FAIR" INDICATES FEW OR NO CLOUDS BELOW 12,000 FEET WITH NO
SIGNIFICANT WEATHER AND/OR OBSTRUCTIONS TO VISIBILITY.

WIZ001-002-006>008-014>016-023>028-050800-
NORTHWEST WISCONSIN

CITY           SKY/WX    TMP DP  RH WIND       PRES   REMARKS
SUPERIOR ARPT  PTCLDY    56  56  97 CALM      29.91S
ASHLAND        CLEAR     55  55 100 CALM      29.92F FOG
HAYWARD        CLOUDY    68  64  87 S6        29.94F FOG
SIREN          CLEAR     68  64  88 S5        29.92F FOG
CUMBERLAND     CLEAR     63  61  94 S7        29.95F FOG
RICE LAKE      CLEAR     66  62  88 SE5       29.97F FOG
CHETEK         CLEAR     65  64  97 CALM      29.96F FOG
LADYSMITH      CLEAR     66  64  92 S3        30.00F FOG
EAU CLAIRE     CLEAR     67  63  87 S6        29.96F
MENOMONIE      CLEAR     67  63  89 S7        29.96F
NEW RICHMOND   CLEAR     66  59  78 S7        29.95F
OSCEOLA        CLEAR     66  66  99 S8        29.95F
$$

WIZ003>005-009-010-017-018-050800-
NORTH CENTRAL WISCONSIN

CITY           SKY/WX    TMP DP  RH WIND       PRES   REMARKS
MANITOWISH WTR CLEAR     61  61 100 S6        29.99F FOG
ARBOR VITAE    CLEAR     62  60  93 SE5       30.00F FOG
WOODRUFF       CLEAR     62  60  93 SE5       30.00F FOG
RHINELANDER    PTCLDY    62  60  93 CALM      30.03S FOG
EAGLE RIVER    PTCLDY    63  63 100 S3        30.01F FOG
LAND O LAKES   CLEAR     62  62 100 S3        30.02F FOG
PHILLIPS       CLEAR     64  63  95 S6        29.99S
TOMAHAWK         N/A     59  58  97 CALM      30.02S FOG
MEDFORD        CLEAR     64  63  94 S6        30.02S FOG
MERRILL        CLEAR     58  58 100 CALM      30.02S FOG
$$

WIZ029-030-035-036-043>047-050800-
CENTRAL WISCONSIN

CITY           SKY/WX    TMP DP  RH WIND       PRES   REMARKS
WAUSAU         CLEAR     67  64  90 S6        30.01R FOG
MOSINEE        CLEAR     63  63 100 S5        30.04S
MARSHFIELD     MOCLDY    64  60  87 S5        30.03R FOG
STEVENS POINT  CLEAR     62  59  91 S3        30.04R
WAUPACA        CLEAR     63  62  97 CALM      30.03R FOG
WAUTOMA        CLEAR     61  61 100 CALM      30.04R FOG
WISC RAPIDS    CLEAR     64  61  90 CALM      30.04R
CAMP DOUGLAS   FOG       57  57 100 SE2       30.02S VSB 1/2
$$

WIZ011>013-019>022-031-037>040-048>050-050800-
NORTHEAST WISCONSIN

CITY           SKY/WX    TMP DP  RH WIND       PRES   REMARKS
ANTIGO         MOCLDY    62  62 100 S3        30.04R FOG
SHAWANO        PTCLDY    67  63  86 CALM      30.02R
OCONTO         CLEAR     60  60 100 CALM      30.01S
STURGEON BAY   CLEAR     61  55  82 S6        30.05F
GREEN BAY      CLEAR     62  60  93 CALM      30.02S FOG
MANITOWOC      CLEAR     59  58  96 MISG      30.04R FOG
APPLETON       CLEAR     66  61  82 S5        30.03S
CLINTONVILLE   CLEAR     64  63  94 CALM      30.02R FOG
OSHKOSH        CLEAR     64  60  87 S6        30.03R
$$

WIZ032>034-041-042-053>061-050800-
SOUTHWEST WISCONSIN

CITY           SKY/WX    TMP DP  RH WIND       PRES   REMARKS
LA CROSSE      CLEAR     67  64  90 S5        30.00R
SPARTA         CLEAR     58  57  94 CALM      30.03R
VIROQUA        CLEAR     65  60  81 S7        30.04R
BOSCOBEL       FOG       59  58  96 CALM      30.03S VSB 1/4
PRAIRIE DU CHI CLEAR     62  59  91 CALM      30.02S
PLATTEVILLE    CLEAR     64  62  90 S3        30.05R
$$

WIZ056-057-062-063-064-067-068-050800-
SOUTH CENTRAL WISCONSIN

CITY           SKY/WX    TMP DP  RH WIND       PRES   REMARKS
REEDSBURG      CLEAR     61  59  94 CALM      30.04R
BARABOO/DELLS  CLEAR     62  58  86 CALM      30.04R
LONE ROCK      CLEAR     60  57  89 CALM      30.04R
MINERAL POINT  CLEAR     64  61  88 S3        30.05R
MADISON        CLEAR     68  61  78 CALM      30.04R
MIDDLETON      CLEAR     64  62  94 CALM      30.05R
WATERTOWN      CLEAR     61  61 100 CALM      30.04R
MONROE         CLEAR     64  59  82 S7        30.05R
JANESVILLE     CLEAR     63  61  94 CALM      30.05R FOG
$$

WIZ051-052-058>065-066-070>072-050800-
SOUTHEAST WISCONSIN

CITY           SKY/WX    TMP DP  RH WIND       PRES   REMARKS
MILWAUKEE      PTCLDY    67  55  65 S3        30.04R
WAUKESHA       CLEAR     63  59  88 SW3       30.06R
MILWAUKEE/TIMM CLEAR     63  54  72 CALM      30.05R
RACINE         CLEAR     65  55  70 CALM      30.06R
BURLINGTON       N/A     56  56  98 CALM      30.05R FOG
KENOSHA        CLEAR     59  55  87 CALM      30.05R
FOND DU LAC    CLEAR     64  61  90 S3        30.03R
SHEBOYGAN      CLEAR     60  57  89 S3        30.04R
WEST BEND      CLEAR     61  57  88 CALM      30.05R
JUNEAU         CLEAR     64  61  90 SE3       30.05R
$$

LSZ147-162-050800-
LAKE SUPERIOR

STATION/POSITION TIME  TEMP    WIND        PRES    WAVE
                       AIR SEA DIR/SP/G            HT/PER
                 (UTC) (F)     (DEG/KT/KT) (MB)    (FT/S)
W MID LAKE BUOY  0650   45 39   90/  6/  8 1012.9F   0
DEVILS ISLAND    0700   57      90/  2/  2 1013.0F
SAXON HARBOR     0640   59     200/  3/  4 1012.9F
$$

LMZ867-665-643>646-050800-
LAKE MICHIGAN

STATION/POSITION TIME  TEMP    WIND        PRES    WAVE
                       AIR SEA DIR/SP/G            HT/PER
                 (UTC) (F)     (DEG/KT/KT) (MB)    (FT/S)
CHAMBERS ISLAND  0600   65     140/  4/  6 1016.6R
S GREEN BAY BUOY 0630   68 69  170/  8/ 12 1017.9R
N MID LAKE BUOY  0650   52 48  200/  6/  6 1017.4R   0
NORTHPORT PIER   0600   62     160/  4/  6 1016.9R
SISTER BAY       0644   61     160/  9/ 12   N/A
ALGOMA LAKESHORE 0641          180/  5/  7   N/A
KEWAUNEE LAKESHO 0600   62     140/  2/  5 1016.3R
SHEBOYGAN LAKESH 0700   63     190/  4/  4 1017.4R
PORT WASHINGTON  0600   63      CALM  /  1 1017.3
ATWATER BUOY     0700   64 60  180/  6/  6 1018.5R
MILWAUKEE LAKESH 0600   70     210/  3/  5   N/A
KENOSHA   LAKESH 0700   68     220/  3/  5 1017.3R
$$

TC  - TEMPERATURE IN CELSIUS
VSB - VISIBILITY IN STATUTE MILES
WCI - WIND CHILL INDEX
HX  - HEAT INDEX




USA.gov is the U.S. government's official web portal to all federal, state and local government web resources and services.